sat.trackr.live / text

‹ back to catalog

STARLINK-5625

NORAD 55368 · 2023-013AP

PAYLOAD ACTIVE UNKNOWN

§ Identity

Operator
Country
US
Launch date
2023-01-26
Launch site
AFETR
Launch vehicle
Mass (kg)
RCS (m²)

Purposes: comms

External: N2YO · Heavens-Above · Gunter

§ Orbital elements

Epoch: 2026-09-20T11:05:41.504352Z

Period
94.27 min
Inclination
43.0039°
Eccentricity
0.0001003
Mean motion
15.27576125 rev/d
Perigee alt
482.4 km
Apogee alt
483.7 km
Semi-major
6,861.2 km
B*
-1.4570e-6
RAAN
268.5246°
Arg perigee
301.0532°
Mean anomaly
59.0221°
Rev number
20,163

§ Raw data

STARLINK-56251 55368U 23013AP  26263.46228593 -.00000302  00000+0 -14570-5 0  99922 55368  43.0039 268.5246 0001003 301.0532  59.0221 15.27576125201631

JSON: /api/v1/satellites/55368 · /tle

For live sub-satellite position, see the globe view (requires WebGL).

§ Visibility from observer

Set your observer location to see the next 7 days of passes ≥ 10°. The values pass through the URL so the page stays shareable.

No JS? Fill the form by hand. The geolocation button needs JavaScript.